Weather History for KSGF - March, 2012

Change the Weather History Date:

Monday, March 26, 2012

  Actual Average Record
Temperature  
Mean Temperature 66 °F 49 °F  
Max Temperature 79 °F 61 °F 82 °F (1910)
Min Temperature 52 °F 38 °F 5 °F (1955)
Degree Days  
Heating Degree Days 0 16  
Month to date heating degree days 239 506  
Since 1 July heating degree days 3446 4099  
Cooling Degree Days 1 0  
Month to date cooling degree days 23 0  
Year to date cooling degree days 23 0  
Growing Degree Days 15 (Base 50)    
Moisture  
Dew Point 53 °F    
Average Humidity 66    
Maximum Humidity 89    
Minimum Humidity 42    
Precipitation  
Precipitation 0.00 in 0.12 in 1.73 in (1934)
Month to date precipitation 2.73 2.96  
Year to date precipitation 6.05 7.95  
Snow  
Snow 0.00 in - - ()
Month to date snowfall T  
Since 1 July snowfall 2.8  
Snow Depth 0.00 in    
Sea Level Pressure  
Sea Level Pressure 30.04 in    
Wind  
Wind Speed 11 mph (SSE)    
Max Wind Speed 20 mph    
Max Gust Speed 25 mph    
Visibility 10 miles    
Events      
T = Trace of Precipitation, MM = Missing Value Source: NWS Daily Summary

Daily Weather History Graph

Daily Weather History Graph

Search for Another Location

Airport or City:

Trip Planner

Search our weather history database for the weather conditions in past years. The results will help you decide how hot, cold, wet, or windy it might be!

Date:

Astronomy

Mar. 26, 2012 Rise Set
Actual Time 7:07 AM CDT 7:31 PM CDT
Civil Twilight 6:41 AM CDT 7:57 PM CDT
Nautical Twilight 6:10 AM CDT 8:28 PM CDT
Astronomical Twilight 5:39 AM CDT 8:59 PM CDT
Moon 9:02 AM CDT (3/26) 11:36 PM CDT (3/26)
Length of Visible Light 13h 16m
Length of Day
12h 23m
Waxing Crescent, 15% of the Moon is Illuminated
Mar 26
Waxing Crescent
Mar 30
First Quarter
Apr 6
Full
Apr 13
Last Quarter
Apr 21
New

Hourly Weather History & Observations

Time (CDT) Temp. Dew Point Humidity Pressure Visibility Wind Dir Wind Speed Gust Speed Precip Events Conditions
12:52 AM 54.0 °F 48.9 °F 83% 30.04 in 10.0 mi SE 3.5 mph - N/A   Clear
1:52 AM 54.0 °F 48.9 °F 83% 30.04 in 10.0 mi SE 6.9 mph - N/A   Clear
2:52 AM 52.0 °F 48.0 °F 86% 30.04 in 10.0 mi SE 9.2 mph - N/A   Clear
3:52 AM 57.0 °F 52.0 °F 83% 30.04 in 10.0 mi SSE 10.4 mph - N/A   Clear
4:52 AM 57.0 °F 53.1 °F 87% 30.04 in 10.0 mi SE 10.4 mph - N/A   Clear
5:52 AM 55.9 °F 52.0 °F 87% 30.06 in 10.0 mi SE 10.4 mph - N/A   Clear
6:52 AM 55.9 °F 52.0 °F 87% 30.09 in 10.0 mi SE 11.5 mph - N/A   Clear
7:52 AM 57.0 °F 52.0 °F 83% 30.10 in 10.0 mi SSE 11.5 mph - N/A   Clear
8:52 AM 61.0 °F 53.1 °F 75% 30.11 in 10.0 mi SSE 12.7 mph - N/A   Clear
9:52 AM 64.9 °F 54.0 °F 68% 30.12 in 10.0 mi SSE 15.0 mph - N/A   Clear
10:52 AM 69.8 °F 55.4 °F 60% 30.13 in 10.0 mi SSE 16.1 mph - N/A   Clear
11:52 AM 72.0 °F 57.0 °F 59% 30.11 in 10.0 mi South 13.8 mph - N/A   Clear
12:52 PM 75.0 °F 55.9 °F 51% 30.07 in 10.0 mi South 11.5 mph - N/A   Clear
1:52 PM 75.9 °F 54.0 °F 46% 30.06 in 10.0 mi SW 9.2 mph - N/A   Clear
2:52 PM 77.0 °F 55.0 °F 47% 30.04 in 10.0 mi South 5.8 mph - N/A   Clear
3:52 PM 78.1 °F 54.0 °F 43% 30.01 in 10.0 mi South 5.8 mph - N/A   Clear
4:52 PM 78.1 °F 53.1 °F 42% 29.99 in 10.0 mi South 5.8 mph - N/A   Clear
5:52 PM 77.0 °F 54.0 °F 45% 29.98 in 10.0 mi SSE 6.9 mph - N/A   Clear
6:52 PM 72.0 °F 55.0 °F 55% 29.98 in 10.0 mi SSE 6.9 mph - N/A   Clear
7:52 PM 66.9 °F 54.0 °F 63% 29.99 in 10.0 mi SE 6.9 mph - N/A   Clear
8:52 PM 66.9 °F 53.1 °F 61% 29.99 in 10.0 mi SE 9.2 mph - N/A   Clear
9:52 PM 66.9 °F 53.1 °F 61% 30.00 in 10.0 mi SE 11.5 mph - N/A   Clear
10:52 PM 66.9 °F 54.0 °F 63% 30.00 in 10.0 mi SSE 16.1 mph - N/A   Clear
11:52 PM 64.9 °F 54.0 °F 68% 29.99 in 10.0 mi SSE 13.8 mph - N/A   Clear